Change the Weather History Date:

Tuesday, October 16, 2012

  Actual Average (KJAN) Record (KJAN)
Temperature  
Mean Temperature 66 °F 65 °F  
Max Temperature 79 °F 77 °F 91 °F (1899)
Min Temperature 53 °F 53 °F 35 °F (1987)
Degree Days  
Heating Degree Days 0 3  
Month to date heating degree days 30  
Since 1 July heating degree days 37  
Cooling Degree Days 0 3  
Month to date cooling degree days 71  
Year to date cooling degree days 2197  
Growing Degree Days 16 (Base 50)    
Moisture  
Dew Point 53 °F    
Average Humidity 68    
Maximum Humidity 93    
Minimum Humidity 36    
Precipitation  
Precipitation 0.00 in 0.13 in 6.35 in (1975)
Month to date precipitation 1.96  
Year to date precipitation 42.27  
Sea Level Pressure  
Sea Level Pressure 29.92 in    
Wind  
Wind Speed 3 mph (SSE)    
Max Wind Speed 10 mph    
Max Gust Speed -    
Visibility 10 miles    
Events      
T = Trace of Precipitation, MM = Missing Value Source: NWS Daily Summary

Daily Weather History Graph

Daily Weather History Graph

Search for Another Location

Airport or City:

Trip Planner

Search our weather history database for the weather conditions in past years. The results will help you decide how hot, cold, wet, or windy it might be!

Date:

Astronomy

Oct. 16, 2012 Rise Set
Actual Time 7:05 AM CDT 6:26 PM CDT
Civil Twilight 6:40 AM CDT 6:51 PM CDT
Nautical Twilight 6:12 AM CDT 7:19 PM CDT
Astronomical Twilight 5:43 AM CDT 7:48 PM CDT
Moon 8:21 AM CDT (10/16) 7:19 PM CDT (10/16)
Length of Visible Light 12h 10m
Length of Day
11h 20m
New Moon, 2% of the Moon is Illuminated
Oct 16
New Moon
Oct 21
First Quarter
Oct 29
Full
Nov 6
Last Quarter
Nov 13
New

Hourly Weather History & Observations

Time (CDT) Temp. Dew Point Humidity Pressure Visibility Wind Dir Wind Speed Gust Speed Precip Events Conditions
12:53 AM 57.0 °F 54.0 °F 89% 30.00 in 10.0 mi Calm Calm - N/A   Clear
1:53 AM 55.9 °F 53.1 °F 90% 30.00 in 10.0 mi Calm Calm - N/A   Clear
2:53 AM 55.0 °F 52.0 °F 89% 29.98 in 10.0 mi Calm Calm - N/A   Clear
3:53 AM 54.0 °F 52.0 °F 93% 29.96 in 10.0 mi Calm Calm - N/A   Clear
5:53 AM 53.1 °F 51.1 °F 93% 29.97 in 10.0 mi Calm Calm - N/A   Clear
7:53 AM 55.9 °F 54.0 °F 93% 29.98 in 10.0 mi Calm Calm - N/A   Clear
8:53 AM 60.1 °F 55.0 °F 83% 29.99 in 10.0 mi Calm Calm - N/A   Clear
9:53 AM 64.9 °F 55.0 °F 70% 30.00 in 10.0 mi ESE 5.8 mph - N/A   Clear
10:53 AM 70.0 °F 53.1 °F 55% 29.99 in 10.0 mi SE 4.6 mph - N/A   Clear
11:53 AM 73.0 °F 53.1 °F 49% 29.99 in 10.0 mi SE 8.1 mph - N/A   Clear
12:53 PM 73.9 °F 50.0 °F 43% 29.95 in 10.0 mi SE 10.4 mph - N/A   Clear
1:53 PM 78.1 °F 50.0 °F 37% 29.91 in 10.0 mi SE 8.1 mph - N/A   Clear
2:53 PM 77.0 °F 48.0 °F 36% 29.90 in 10.0 mi Variable 6.9 mph - N/A   Clear
3:53 PM 75.9 °F 48.9 °F 38% 29.87 in 10.0 mi South 5.8 mph - N/A   Clear
4:53 PM 73.0 °F 54.0 °F 51% 29.86 in 10.0 mi South 4.6 mph - N/A   Clear
5:53 PM 70.0 °F 55.0 °F 59% 29.86 in 10.0 mi SSE 3.5 mph - N/A   Clear
6:53 PM 69.1 °F 54.0 °F 58% 29.86 in 10.0 mi South 3.5 mph - N/A   Clear
7:53 PM 66.0 °F 55.9 °F 70% 29.86 in 10.0 mi South 5.8 mph - N/A   Clear
8:53 PM 66.0 °F 55.9 °F 70% 29.85 in 10.0 mi SSE 5.8 mph - N/A   Clear
9:53 PM 64.9 °F 55.0 °F 70% 29.86 in 10.0 mi Calm Calm - N/A   Clear
10:53 PM 64.0 °F 55.0 °F 73% 29.85 in 10.0 mi East 4.6 mph - N/A   Clear
11:53 PM 57.9 °F 54.0 °F 87% 29.84 in 10.0 mi SSE 6.9 mph - N/A   Clear